ONEWEB-0033 (45142 NORAD) Tracking and Keplerian Element Data

This shows tracking and keplerian element data for the satellite.

Feedback or suggestion? Click here.




ElementValue
Catalog45142
NameONEWEB-0033
Epoch Orbit942
Epoch Day94.10902468
Epoch Year2020
RAAN145.3778
Inclination87.4642
Eccentricity0.0021992
Argument of Perigee102.7129
Mean Anonmoly257.6554
Mean Motion14.81638505
Decay Rate-0.00017345
L11 45142U 20008M 20094.10902468 -.00017345 00000-0 -22083-2 0 9990
L22 45142 87.4642 145.3778 0021992 102.7129 257.6554 14.81638505 9429

Live tracking and technical data element details for ONEWEB-0033 (NORAD 45142). ONEWEB-0033 can be tracked NOW for your location showing map with azimuth and elevation plus other details from your city location.

Track the satellite on the map from your city or location and see movement details for azimuth, elevation, latitude, longitude, range, height, and movement on the map or in text.







IsCatalogInMostPopularTable: catalog: 45142, numindb: 11
Update: records affected: 1



GetName: 45142 ONEWEB-0033

Hit Count: updated at: Mon, 06 Apr 2020 10:34:44 GMT